EW3393 Weather Reports


Display with metric or nautical units.
time (UTC)temp
F
wind
direction
speed
MPH
gust
MPH
rain 1hr
in
rain 24hr
in
rain mn
in
humidity
%
barometer
mb
20260903222339 94 248 13.0 17.0 0.00 0.00 0.00 13 1008.1
20260903221813 94 263 9.0 20.0 0.00 0.00 0.00 12 1008.1
20260903221324 95 244 12.0 20.0 0.00 0.00 0.00 12 1008.2
20260903220817 95 272 12.0 17.0 0.00 0.00 0.00 12 1008.2
20260903220328 95 252 9.0 18.0 0.00 0.00 0.00 12 1008.3
20260903215817 95 286 14.0 18.0 0.00 0.00 0.00 12 1008.3
20260903215328 94 269 7.0 18.0 0.00 0.00 0.00 12 1008.4
20260903214820 94 322 12.0 18.0 0.00 0.00 0.00 12 1008.6
20260903214330 94 242 5.0 17.0 0.00 0.00 0.00 12 1008.6
20260903213822 94 264 11.0 17.0 0.00 0.00 0.00 12 1008.6
20260903213317 94 267 5.0 17.0 0.00 0.00 0.00 12 1008.7
20260903212828 94 248 12.0 17.0 0.00 0.00 0.00 12 1008.8
20260903212318 94 241 14.0 17.0 0.00 0.00 0.00 12 1008.8
20260903211831 94 314 12.0 19.0 0.00 0.00 0.00 12 1008.9
20260903211343 94 250 14.0 19.0 0.00 0.00 0.00 12 1008.8
20260903210814 93 271 8.0 12.0 0.00 0.00 0.00 13 1008.9
20260903210324 93 256 5.0 13.0 0.00 0.00 0.00 12 1008.9
20260903205816 94 302 9.0 15.0 0.00 0.00 0.00 12 1008.9
20260903205328 94 203 6.0 15.0 0.00 0.00 0.00 13 1009.0
20260903204820 93 195 3.0 12.0 0.00 0.00 0.00 13 1009.0
20260903204336 93 253 7.0 17.0 0.00 0.00 0.00 12 1009.1
20260903203827 93 315 11.0 17.0 0.00 0.00 0.00 12 1009.1
20260903203317 93 280 3.0 12.0 0.00 0.00 0.00 12 1009.2
20260903202830 93 338 5.0 15.0 0.00 0.00 0.00 13 1009.2
20260903202322 93 298 9.0 17.0 0.00 0.00 0.00 12 1009.4
20260903201814 93 290 10.0 16.0 0.00 0.00 0.00 12 1009.4
20260903201325 92 286 7.0 15.0 0.00 0.00 0.00 12 1009.4
20260903200817 92 254 8.0 16.0 0.00 0.00 0.00 11 1009.4
20260903200328 92 248 11.0 16.0 0.00 0.00 0.00 11 1009.5
20260903195821 92 270 8.0 13.0 0.00 0.00 0.00 11 1009.5
20260903195332 91 301 5.0 12.0 0.00 0.00 0.00 11 1009.6
20260903194824 91 235 7.0 16.0 0.00 0.00 0.00 11 1009.7
20260903194336 91 240 4.0 16.0 0.00 0.00 0.00 11 1009.7
20260903193848 90 265 8.0 13.0 0.00 0.00 0.00 11 1009.8
20260903193319 90 276 6.0 13.0 0.00 0.00 0.00 12 1009.9
20260903192832 90 257 5.0 13.0 0.00 0.00 0.00 11 1010.0
20260903192324 90 277 6.0 11.0 0.00 0.00 0.00 11 1010.1
20260903191837 90 219 4.0 12.0 0.00 0.00 0.00 11 1010.2
20260903191327 90 260 5.0 12.0 0.00 0.00 0.00 12 1010.3
20260903190825 90 271 6.0 12.0 0.00 0.00 0.00 12 1010.4
20260903190316 90 254 7.0 14.0 0.00 0.00 0.00 12 1010.4
20260903185825 89 302 5.0 14.0 0.00 0.00 0.00 12 1010.5
20260903185317 89 225 7.0 13.0 0.00 0.00 0.00 12 1010.6
20260903184828 89 242 8.0 12.0 0.00 0.00 0.00 12 1010.7
20260903184318 89 261 8.0 12.0 0.00 0.00 0.00 12 1010.7
20260903183830 89 284 8.0 12.0 0.00 0.00 0.00 13 1010.8
20260903183341 88 254 4.0 14.0 0.00 0.00 0.00 13 1010.9
20260903182832 88 263 7.0 15.0 0.00 0.00 0.00 13 1010.9
20260903182323 88 232 8.0 16.0 0.00 0.00 0.00 13 1011.0
20260903181839 88 248 12.0 16.0 0.00 0.00 0.00 14 1011.0
20260903181327 88 296 11.0 18.0 0.00 0.00 0.00 13 1011.0
20260903180819 88 250 12.0 18.0 0.00 0.00 0.00 14 1011.0
20260903180329 88 261 12.0 16.0 0.00 0.00 0.00 14 1011.0
20260903175818 88 318 10.0 17.0 0.00 0.00 0.00 13 1011.0
20260903175349 88 300 12.0 17.0 0.00 0.00 0.00 13 1011.0
20260903174821 87 300 9.0 16.0 0.00 0.00 0.00 14 1011.0
20260903174331 87 306 11.0 16.0 0.00 0.00 0.00 14 1011.0
20260903173824 87 259 9.0 15.0 0.00 0.00 0.00 15 1011.1
20260903173316 86 298 12.0 19.0 0.00 0.00 0.00 14 1011.1
20260903172850 86 309 11.0 19.0 0.00 0.00 0.00 15 1011.2
20260903172320 86 298 13.0 17.0 0.00 0.00 0.00 14 1011.1
20260903171817 86 272 12.0 18.0 0.00 0.00 0.00 15 1011.1
20260903171328 86 296 14.0 18.0 0.00 0.00 0.00 15 1011.1
20260903170820 85 290 11.0 18.0 0.00 0.00 0.00 16 1011.1
20260903170331 85 305 12.0 17.0 0.00 0.00 0.00 15 1011.1
20260903165821 85 287 13.0 17.0 0.00 0.00 0.00 14 1011.1
20260903165313 84 309 10.0 16.0 0.00 0.00 0.00 15 1011.1
20260903164825 84 306 12.0 16.0 0.00 0.00 0.00 14 1011.1
20260903164336 84 305 13.0 16.0 0.00 0.00 0.00 15 1011.1
20260903163847 84 296 12.0 17.0 0.00 0.00 0.00 15 1011.1
20260903163317 83 296 12.0 18.0 0.00 0.00 0.00 16 1011.0
20260903162851 83 273 14.0 19.0 0.00 0.00 0.00 16 1011.1
20260903162324 83 310 15.0 19.0 0.00 0.00 0.00 16 1011.1
20260903161817 82 306 14.0 19.0 0.00 0.00 0.00 17 1011.0
20260903161328 82 298 13.0 19.0 0.00 0.00 0.00 17 1011.1
20260903160820 82 301 13.0 19.0 0.00 0.00 0.00 18 1011.2
20260903160331 81 282 15.0 20.0 0.00 0.00 0.00 18 1011.2
20260903155822 81 296 16.0 20.0 0.00 0.00 0.00 18 1011.2
20260903155313 81 290 15.0 22.0 0.00 0.00 0.00 18 1011.2
20260903154826 81 315 17.0 22.0 0.00 0.00 0.00 18 1011.2
20260903154321 80 304 13.0 20.0 0.00 0.00 0.00 17 1011.2
20260903153813 80 313 13.0 22.0 0.00 0.00 0.00 18 1011.2
20260903153324 80 286 17.0 22.0 0.00 0.00 0.00 19 1011.2
20260903152818 80 309 14.0 19.0 0.00 0.00 0.00 19 1011.2
20260903152329 79 305 13.0 22.0 0.00 0.00 0.00 19 1011.2
20260903151820 80 302 17.0 22.0 0.00 0.00 0.00 18 1011.2
20260903151351 79 309 15.0 18.0 0.00 0.00 0.00 17 1011.1
20260903150823 79 317 12.0 16.0 0.00 0.00 0.00 18 1011.2
20260903150314 78 295 11.0 17.0 0.00 0.00 0.00 19 1011.2
20260903145825 78 309 13.0 17.0 0.00 0.00 0.00 20 1011.2
20260903145319 77 298 12.0 18.0 0.00 0.00 0.00 20 1011.2
20260903144832 77 288 14.0 20.0 0.00 0.00 0.00 20 1011.1
20260903144323 77 281 17.0 20.0 0.00 0.00 0.00 21 1011.1
20260903143815 76 288 14.0 19.0 0.00 0.00 0.00 22 1011.1
20260903143326 76 288 15.0 19.0 0.00 0.00 0.00 22 1011.0
20260903142818 75 293 15.0 19.0 0.00 0.00 0.00 23 1011.0
20260903142329 75 267 15.0 19.0 0.00 0.00 0.00 24 1010.8
20260903141821 74 271 14.0 18.0 0.00 0.00 0.00 25 1010.8
20260903141316 74 280 13.0 18.0 0.00 0.00 0.00 25 1010.6
20260903140828 74 280 13.0 19.0 0.00 0.00 0.00 25 1010.6
20260903140339 73 268 15.0 19.0 0.00 0.00 0.00 27 1010.5
20260903135846 73 300 14.0 19.0 0.00 0.00 0.00 28 1010.5
20260903135316 72 306 14.0 19.0 0.00 0.00 0.00 28 1010.5
20260903134830 72 306 13.0 17.0 0.00 0.00 0.00 29 1010.5
20260903134320 71 289 13.0 17.0 0.00 0.00 0.00 29 1010.4
20260903133832 71 295 14.0 17.0 0.00 0.00 0.00 29 1010.4
20260903133323 72 304 13.0 19.0 0.00 0.00 0.00 29 1010.3
20260903132816 72 318 15.0 19.0 0.00 0.00 0.00 29 1010.3
20260903132332 72 327 14.0 20.0 0.00 0.00 0.00 28 1010.2
20260903131825 72 320 12.0 17.0 0.00 0.00 0.00 28 1010.1
20260903131316 73 295 14.0 17.0 0.00 0.00 0.00 27 1010.1
20260903130829 73 309 13.0 20.0 0.00 0.00 0.00 27 1010.1
20260903130319 73 319 13.0 20.0 0.00 0.00 0.00 27 1010.0
20260903125848 73 311 15.0 22.0 0.00 0.00 0.00 27 1009.9
20260903125317 73 311 16.0 22.0 0.00 0.00 0.00 27 1009.9
20260903124829 72 314 15.0 20.0 0.00 0.00 0.00 28 1009.9
20260903124320 72 318 12.0 20.0 0.00 0.00 0.00 28 1009.9
20260903123817 72 312 14.0 19.0 0.00 0.00 0.00 28 1009.9
20260903123328 72 313 13.0 16.0 0.00 0.00 0.00 29 1010.0
20260903122821 72 328 13.0 17.0 0.00 0.00 0.00 30 1010.0
20260903122331 72 296 13.0 18.0 0.00 0.00 0.00 30 1010.0
20260903121825 72 301 13.0 18.0 0.00 0.00 0.00 31 1010.0
20260903121336 72 300 13.0 19.0 0.00 0.00 0.00 31 1010.0
20260903120826 72 315 13.0 18.0 0.00 0.00 0.00 31 1010.1
20260903120319 72 310 13.0 19.0 0.00 0.00 0.00 30 1010.0
20260903115828 73 311 14.0 21.0 0.00 0.00 0.00 30 1010.1
20260903115320 73 273 16.0 21.0 0.00 0.00 0.00 30 1010.0
20260903114816 73 275 15.0 20.0 0.00 0.00 0.00 30 1010.1
20260903114327 73 296 13.0 17.0 0.00 0.00 0.00 29 1010.2
20260903113819 73 288 13.0 17.0 0.00 0.00 0.00 29 1010.2
20260903113330 73 282 10.0 14.0 0.00 0.00 0.00 30 1010.2
20260903112843 73 323 10.0 19.0 0.00 0.00 0.00 30 1010.1
20260903112314 73 307 12.0 19.0 0.00 0.00 0.00 29 1010.1
20260903111847 73 308 13.0 18.0 0.00 0.00 0.00 30 1010.1
20260903111316 73 290 12.0 18.0 0.00 0.00 0.00 30 1010.1
20260903110830 74 281 13.0 17.0 0.00 0.00 0.00 30 1010.1
20260903110321 74 292 12.0 16.0 0.00 0.00 0.00 30 1010.1
20260903105830 74 299 9.0 14.0 0.00 0.00 0.00 29 1010.2
20260903105326 74 300 11.0 13.0 0.00 0.00 0.00 29 1010.2
20260903104840 74 296 11.0 13.0 0.00 0.00 0.00 29 1010.2
20260903104331 74 304 10.0 14.0 0.00 0.00 0.00 30 1010.2
20260903103844 74 293 12.0 15.0 0.00 0.00 0.00 29 1010.2
20260903103315 75 323 12.0 17.0 0.00 0.00 0.00 29 1010.2
20260903102826 75 298 13.0 17.0 0.00 0.00 0.00 29 1010.2
20260903102318 75 288 11.0 16.0 0.00 0.00 0.00 29 1010.1
20260903101830 75 292 12.0 21.0 0.00 0.00 0.00 29 1010.1
20260903101321 75 300 14.0 21.0 0.00 0.00 0.00 30 1010.1
20260903100814 75 277 14.0 19.0 0.00 0.00 0.00 31 1010.1
20260903100328 75 277 16.0 20.0 0.00 0.00 0.00 30 1010.1
20260903095816 76 260 13.0 23.0 0.00 0.00 0.00 30 1010.1
20260903095327 76 300 15.0 23.0 0.00 0.00 0.00 29 1010.2
20260903094819 76 252 15.0 22.0 0.00 0.00 0.00 30 1010.2
20260903094329 76 306 15.0 22.0 0.00 0.00 0.00 29 1010.4
20260903093822 76 278 11.0 16.0 0.00 0.00 0.00 28 1010.4
20260903093313 76 323 8.0 16.0 0.00 0.00 0.00 28 1010.5
20260903092827 76 281 10.0 16.0 0.00 0.00 0.00 28 1010.6
20260903092321 77 304 10.0 14.0 0.00 0.00 0.00 29 1010.6
20260903091814 77 293 10.0 20.0 0.00 0.00 0.00 29 1010.6
20260903091325 77 311 13.0 20.0 0.00 0.00 0.00 28 1010.6
20260903090818 77 284 14.0 19.0 0.00 0.00 0.00 28 1010.6
20260903090329 77 306 16.0 28.0 0.00 0.00 0.00 29 1010.6
20260903085818 77 298 19.0 29.0 0.00 0.00 0.00 30 1010.6
20260903085350 78 268 23.0 31.0 0.00 0.00 0.00 29 1010.5
20260903084822 77 301 22.0 31.0 0.00 0.00 0.00 30 1010.5
20260903084314 77 276 16.0 25.0 0.00 0.00 0.00 31 1010.5
20260903083830 77 279 20.0 32.0 0.00 0.00 0.00 32 1010.7
20260903083322 77 269 23.0 32.0 0.00 0.00 0.00 32 1010.6
20260903082814 76 288 17.0 25.0 0.00 0.00 0.00 33 1010.7
20260903082325 76 278 18.0 31.0 0.00 0.00 0.00 34 1010.7
20260903081838 76 277 23.0 31.0 0.00 0.00 0.00 34 1010.7
20260903081348 76 273 21.0 31.0 0.00 0.00 0.00 34 1010.7
20260903080820 76 262 20.0 31.0 0.00 0.00 0.00 35 1010.7
20260903080332 76 288 23.0 31.0 0.00 0.00 0.00 35 1010.7
20260903075822 76 264 24.0 32.0 0.00 0.00 0.00 35 1010.8
20260903075332 76 295 26.0 32.0 0.00 0.00 0.00 36 1010.8
20260903074828 76 282 23.0 33.0 0.00 0.00 0.00 36 1010.7
20260903074319 77 254 23.0 33.0 0.00 0.00 0.00 35 1010.7
20260903073832 77 266 23.0 29.0 0.00 0.00 0.00 36 1010.7
20260903073323 76 274 21.0 27.0 0.00 0.00 0.00 36 1010.7
20260903072835 76 277 20.0 26.0 0.00 0.00 0.00 36 1010.7
20260903072345 76 289 17.0 25.0 0.00 0.00 0.00 36 1010.7
20260903071817 76 257 17.0 24.0 0.00 0.00 0.00 36 1010.7
20260903071328 76 288 18.0 25.0 0.00 0.00 0.00 36 1010.7
20260903070821 77 262 20.0 27.0 0.00 0.00 0.00 35 1010.7
20260903070317 77 265 18.0 27.0 0.00 0.00 0.00 35 1010.7
20260903065847 76 271 20.0 27.0 0.00 0.00 0.00 35 1010.8
20260903065318 76 267 19.0 25.0 0.00 0.00 0.00 35 1010.8
20260903064831 76 271 17.0 25.0 0.00 0.00 0.00 35 1010.8
20260903064321 77 284 20.0 26.0 0.00 0.00 0.00 35 1010.8
20260903063813 77 269 19.0 27.0 0.00 0.00 0.00 34 1010.8
20260903063325 77 271 17.0 25.0 0.00 0.00 0.00 34 1010.7
20260903062818 77 252 16.0 25.0 0.00 0.00 0.00 35 1010.7
20260903062331 77 279 14.0 25.0 0.00 0.00 0.00 35 1010.9
20260903061828 76 271 17.0 24.0 0.00 0.00 0.00 35 1011.0
20260903061319 76 292 13.0 20.0 0.00 0.00 0.00 35 1011.0
20260903060830 76 298 15.0 21.0 0.00 0.00 0.00 35 1011.0
20260903060321 76 290 16.0 24.0 0.00 0.00 0.00 35 1011.0
20260903055830 76 269 15.0 25.0 0.00 0.00 0.00 34 1011.1
20260903055321 77 307 21.0 25.0 0.00 0.00 0.00 34 1011.1
20260903054814 77 279 18.0 25.0 0.00 0.00 0.00 34 1011.1
20260903054325 77 293 18.0 24.0 0.00 0.00 0.00 34 1011.1
20260903053822 77 282 18.0 26.0 0.00 0.00 0.00 33 1011.1
20260903053353 77 275 22.0 28.0 0.00 0.00 0.00 33 1011.1
20260903052823 78 281 21.0 29.0 0.00 0.00 0.00 33 1011.2
20260903052314 78 277 22.0 31.0 0.00 0.00 0.00 33 1011.2
20260903051827 78 279 25.0 31.0 0.00 0.00 0.00 33 1011.2
20260903051316 78 309 22.0 34.0 0.00 0.00 0.00 33 1011.2
20260903050829 78 288 24.0 34.0 0.00 0.00 0.00 33 1011.1
20260903050320 78 293 25.0 34.0 0.00 0.00 0.00 33 1011.0
20260903045830 79 281 22.0 33.0 0.00 0.00 0.00 32 1011.1
20260903045319 79 287 24.0 33.0 0.00 0.00 0.00 32 1011.1
20260903044815 79 290 25.0 32.0 0.00 0.00 0.00 32 1011.1
20260903044347 79 308 25.0 32.0 0.00 0.00 0.00 31 1011.0
20260903043818 79 294 23.0 31.0 0.00 0.00 0.00 32 1010.9
20260903043328 79 286 20.0 31.0 0.00 0.00 0.00 32 1011.0
20260903042820 79 276 19.0 30.0 0.00 0.00 0.00 32 1010.9
20260903042330 80 267 20.0 30.0 0.00 0.00 0.00 32 1010.9
20260903041822 80 284 18.0 28.0 0.00 0.00 0.00 31 1010.9
20260903041313 80 284 16.0 34.0 0.00 0.00 0.00 31 1011.0
20260903040824 80 288 16.0 34.0 0.00 0.00 0.00 31 1011.0
20260903040314 80 276 16.0 25.0 0.00 0.00 0.00 31 1011.0
20260903035827 81 281 15.0 25.0 0.00 0.00 0.00 30 1010.8
20260903035318 81 296 17.0 23.0 0.00 0.00 0.00 29 1010.7
20260903034831 81 306 17.0 24.0 0.00 0.00 0.00 28 1010.7
20260903034323 82 302 18.0 27.0 0.00 0.00 0.00 27 1010.7
20260903033835 82 311 19.0 27.0 0.00 0.00 0.00 26 1010.5
20260903033325 83 313 20.0 28.0 0.00 0.00 0.00 24 1010.5
20260903032818 83 317 17.0 28.0 0.00 0.00 0.00 23 1010.4
20260903032328 83 330 18.0 28.0 0.00 0.00 0.00 23 1010.4
20260903031820 83 329 20.0 26.0 0.00 0.00 0.00 21 1010.3
20260903031315 84 316 19.0 29.0 0.00 0.00 0.00 22 1010.1
20260903030847 84 311 21.0 26.0 0.00 0.00 0.00 21 1010.0
20260903030337 84 313 18.0 25.0 0.00 0.00 0.00 20 1010.0
20260903025825 85 301 20.0 26.0 0.00 0.00 0.00 19 1009.9
20260903025315 85 317 21.0 27.0 0.00 0.00 0.00 19 1009.9
20260903024828 85 306 20.0 27.0 0.00 0.00 0.00 20 1009.8
20260903024318 85 309 19.0 26.0 0.00 0.00 0.00 20 1009.8
20260903023831 86 319 17.0 26.0 0.00 0.00 0.00 20 1009.7
20260903023323 86 292 19.0 26.0 0.00 0.00 0.00 20 1009.6
20260903022816 86 281 19.0 26.0 0.00 0.00 0.00 19 1009.6
20260903022331 87 284 16.0 23.0 0.00 0.00 0.00 18 1009.5
20260903021823 87 286 18.0 25.0 0.00 0.00 0.00 18 1009.5
20260903021332 87 277 18.0 26.0 0.00 0.00 0.00 18 1009.6
20260903020824 88 303 19.0 26.0 0.00 0.00 0.00 17 1009.6
20260903020315 88 272 16.0 25.0 0.00 0.00 0.00 17 1009.6
20260903015825 89 295 16.0 22.0 0.00 0.00 0.00 17 1009.6
20260903015316 89 299 17.0 22.0 0.00 0.00 0.00 17 1009.5
20260903014828 89 288 18.0 28.0 0.00 0.00 0.00 16 1009.6
20260903014340 90 290 19.0 28.0 0.00 0.00 0.00 16 1009.6
20260903013816 90 302 16.0 22.0 0.00 0.00 0.00 16 1009.6
20260903013327 91 277 17.0 22.0 0.00 0.00 0.00 15 1009.6
20260903012840 91 314 17.0 24.0 0.00 0.00 0.00 15 1009.6
20260903012329 91 309 15.0 23.0 0.00 0.00 0.00 14 1009.6
20260903011842 92 270 16.0 24.0 0.00 0.00 0.00 14 1009.6
20260903011331 92 277 17.0 25.0 0.00 0.00 0.00 14 1009.5
20260903010823 92 282 16.0 25.0 0.00 0.00 0.00 14 1009.4
20260903010314 92 279 16.0 22.0 0.00 0.00 0.00 13 1009.4
20260903005823 92 300 18.0 24.0 0.00 0.00 0.00 13 1009.4
20260903005314 93 270 19.0 24.0 0.00 0.00 0.00 11 1009.4
20260903004826 93 275 17.0 27.0 0.00 0.00 0.00 11 1009.4
20260903004319 93 279 21.0 27.0 0.00 0.00 0.00 12 1009.3
20260903003831 93 261 19.0 25.0 0.00 0.00 0.00 11 1009.4
20260903003322 94 271 20.0 28.0 0.00 0.00 0.00 11 1009.3
20260903002835 94 262 22.0 28.0 0.00 0.00 0.00 12 1009.3
20260903002325 94 278 19.0 27.0 0.00 0.00 0.00 11 1009.3
20260903001815 95 253 17.0 24.0 0.00 0.00 0.00 10 1009.3
20260903001327 95 266 17.0 26.0 0.00 0.00 0.00 9 1009.4
20260903000840 95 257 15.0 21.0 0.00 0.00 0.00 9 1009.4
20260903000349 95 243 15.0 24.0 0.00 0.00 0.00 9 1009.5
20260902235818 95 281 17.0 23.0 0.00 0.00 0.00 9 1009.6
20260902235330 95 253 19.0 23.0 0.00 0.00 0.00 9 1009.6
20260902234827 95 247 17.0 23.0 0.00 0.00 0.00 9 1009.6
20260902234317 95 277 11.0 28.0 0.00 0.00 0.00 9 1009.6
20260902233850 96 256 22.0 28.0 0.00 0.00 0.00 8 1009.6
20260902233320 95 275 13.0 27.0 0.00 0.00 0.00 8 1009.7
20260902232853 96 291 14.0 23.0 0.00 0.00 0.00 7 1009.8
20260902232324 96 246 16.0 25.0 0.00 0.00 0.00 7 1009.8
20260902231816 96 241 19.0 27.0 0.00 0.00 0.00 7 1009.9
20260902231327 96 306 19.0 29.0 0.00 0.00 0.00 8 1009.8
20260902230820 96 260 21.0 31.0 0.00 0.00 0.00 7 1009.8
20260902230316 96 250 19.0 32.0 0.00 0.00 0.00 7 1009.8
20260902225826 96 249 17.0 25.0 0.00 0.00 0.00 7 1009.8
20260902225318 96 286 17.0 26.0 0.00 0.00 0.00 6 1009.9
20260902224852 97 273 18.0 25.0 0.00 0.00 0.00 6 1010.0
20260902224341 97 281 14.0 23.0 0.00 0.00 0.00 7 1010.0
20260902223832 96 256 17.0 23.0 0.00 0.00 0.00 7 1010.0
20260902223322 96 226 11.0 19.0 0.00 0.00 0.00 8 1010.1
20260902222816 97 244 13.0 30.0 0.00 0.00 0.00 7 1010.1